Bibliothèque

Musique » Lana Del Rey »

Diet Mountain Dew Ce titre fait partie des coups de cœur de VenicioFilho

30 écoutes | Se rendre sur la page du titre

Du Lundi 27 février 2012 au Dimanche 27 mai 2012 Tout le temps

Titres (30)
Titre Album Durée Date
Diet Mountain Dew 3:43 24 mai 2012, 15h22m
Diet Mountain Dew 3:43 24 mai 2012, 15h22m
Diet Mountain Dew 3:43 16 mai 2012, 15h23m
Diet Mountain Dew 3:43 15 mai 2012, 1h38m
Diet Mountain Dew 3:43 13 mai 2012, 17h13m
Diet Mountain Dew 3:43 24 avr. 2012, 23h11m
Diet Mountain Dew 3:43 24 avr. 2012, 1h29m
Diet Mountain Dew 3:43 11 avr. 2012, 20h56m
Diet Mountain Dew 3:43 8 avr. 2012, 16h28m
Diet Mountain Dew 3:43 8 avr. 2012, 16h28m
Diet Mountain Dew 3:43 4 avr. 2012, 23h49m
Diet Mountain Dew 3:43 4 avr. 2012, 23h49m
Diet Mountain Dew 3:43 24 mars 2012, 23h58m
Diet Mountain Dew 3:43 22 mars 2012, 16h58m
Diet Mountain Dew 3:43 21 mars 2012, 17h09m
Diet Mountain Dew 3:43 17 mars 2012, 21h16m
Diet Mountain Dew 3:43 17 mars 2012, 21h16m
Diet Mountain Dew 3:43 17 mars 2012, 21h16m
Diet Mountain Dew 3:43 17 mars 2012, 21h16m
Diet Mountain Dew 3:43 17 mars 2012, 21h16m
Diet Mountain Dew 3:43 11 mars 2012, 22h03m
Diet Mountain Dew 3:43 9 mars 2012, 15h06m
Diet Mountain Dew 3:43 9 mars 2012, 15h06m
Diet Mountain Dew 3:43 9 mars 2012, 15h06m
Diet Mountain Dew 3:43 9 mars 2012, 15h06m
Diet Mountain Dew 3:43 9 mars 2012, 15h02m
Diet Mountain Dew 3:43 4 mars 2012, 21h55m
Diet Mountain Dew 3:43 4 mars 2012, 21h51m
Diet Mountain Dew 3:43 1 mars 2012, 13h12m
Diet Mountain Dew 3:43 1 mars 2012, 13h12m